STARLINK-1723, 46333

Orbit data source: Space-Track

STARLINK-1723, 46333 is a payload satellite owned by SpaceX/Seattle (US) in LEO that was launched on Thu, 03 Sep 2020 UTC via an FALCON 9 launch vehicle from the Air Force Eastern Test Range (AFETR). Payloads include a variety of satellites, spacecraft, and rockets equipped with specific instruments for various scientific and technological missions. These include communications satellites like Starlink; space stations such as the ISS; scientific satellites like the Hubble; Earth observation satellites from companies like Planet Labs, Umbra, and HawkEye 360; GPS; miniature CubeSats for education and research; and military/defense satellites.

Loading next visibility...
STARLINK-1723 details
Identifier
46333, 2020-062J
Orbit
LEO
Last TLE update15 hours ago
Origin
Flag of USSpaceX/Seattle (US)
ManufacturerSpaceX/Seattle
MissionOperational Commercial Communications
Bus & MotorSTARLINK, Unknown motor
Mass260 kg wet, ~248 kg dry
Launch date (UTC)
2020-09-03 (4 years ago)
Launch vehicle
FALCON 9
Launch site
Air Force Eastern Test Range (AFETR)
Object type
Payload
Rocket body
Debris
Shape & HBRBox + 1 Pan, 8.86 m
Radar Cross Section13.562 m², Large (>1 m²)

Expand to show TLE details & history

TLE from 15 hours ago
0 STARLINK-1723
1 46333U 20062J   24360.91691022 -.00001159  00000-0 -58935-4 0  9996
2 46333  53.0530 186.3442 0001257  99.5208 260.5923 15.06396252238170
Epoch: 2024-12-25T22:00Z
Definitive object data (Epoch: 2024-12-25T22:00:21.043Z)
Latitude-0°
Longitude121.35273°
Altitude548.244 km
Speed7.589 km/s
True Right ascension12h 25m 22s
True Declination0° 00' 00"
Sunlit
Object was in daylight at TLE epoch
Visualization TLE readout
Latitude2.73808°
Longitude-63.52467°
Altitude547.567 km
Speed7.59 km/s
Apparent Right ascension00h 15m 18s
Apparent Declination-17° 35' 30"
Sunlit
Object is in daylight
Visualization observer readout
Local Sidereal Time12:28:38
Azimuth8.323° NNE
Elevation-67.49°
Doppler factor1
Orbital elements
Apogee altitude548.365 km
Perigee altitude546.623 km
Semi-major axis6,925.631 km
Eccentricity0.0001257
Inclination53.053°
RAAN186.3442°
Arg. of periapsis99.5208°
True anomaly260.57809°
Mean anomaly260.5923°
Eccentric anomaly260.58519°
Mean motion3.76577 °/min
BSTAR-0.000058935
Orbital period95.6 mins
Loading maneuver chart data...
Loading historical data...
Loading historical data...
Loading historical data...
Loading historical data...
Loading historical data...
Loading historical data...
Loading historical data...

STARLINK-1723 Visibility forecast

Observer location: undefined°, undefined

Span
Click to sort rows by Start time (UTC) header in descending order
Start Az.
Max El. time (UTC)
Max El. Az.
Max El.
End time (UTC)
End Az.
4 mins2024-12-26 14:05:00.713Z162.407° S2024-12-26 14:07:00.713Z128.661° SE17.32°2024-12-26 14:09:00.713Z94.071° ESE
6 mins2024-12-26 15:44:00.713Z249.141° W2024-12-26 15:46:00.713Z304.165° NW41.065°2024-12-26 15:50:00.713Z44.118° NE
4 mins2024-12-26 17:25:00.713Z317.267° NNW2024-12-26 17:26:00.713Z334.778° NNW16.784°2024-12-26 17:29:00.713Z23.846° NE
5 mins2024-12-26 20:46:00.713Z344.236° N2024-12-26 20:48:00.713Z26.435° NE23.417°2024-12-26 20:51:00.713Z79.602° E
6 mins2024-12-26 22:25:00.713Z299.737° NW2024-12-26 22:28:00.713Z202.48° SSW40.929°2024-12-26 22:31:00.713Z145.311° SSE
|